,,�O�C���x [��],����1,�O�C���x [��],����2,���ԉ��x [��],����3,���Ԏ��x [��],����4,�Q�����x [��],����5,�Q�����x [��],����6,1�K�z�[��(��󒲎�)���x [��],����7,���� [��],����8
2003/4/1,0:00,6.2,0,83,0,23.8,0,36.1,0,22.3,0,,1,22.1,0,10.8,0
2003/4/1,0:15,6.3,0,79.9,0,23.8,0,36,0,22.3,0,,1,22.1,0,11,0
2003/4/1,0:30,6.1,0,81.5,0,23.8,0,35.9,0,22.3,0,,1,22.1,0,10.5,0
2003/4/1,0:45,5.9,0,79.1,0,23.9,0,35.8,0,22.3,0,,1,22.1,0,10.7,0
2003/4/1,1:00,4.6,0,89.2,0,23.9,0,35.4,0,22.3,0,,1,22.1,0,10.4,0
2003/4/1,1:15,5.3,0,79.8,0,24,0,35.2,0,22.3,0,,1,22.2,0,10.7,0
2003/4/1,1:30,5.4,0,79.6,0,24.1,0,35.1,0,22.3,0,,1,22.3,0,10.9,0
2003/4/1,1:45,5.4,0,78.6,0,24.1,0,34.8,0,22.2,0,,1,22.3,0,11.1,0
2003/4/1,2:00,5.4,0,77.3,0,24.1,0,34.8,0,22.1,0,,1,22.3,0,11.3,0
2003/4/1,2:15,4.3,0,86.2,0,24.2,0,34.4,0,22,0,,1,22.3,0,11.6,0
2003/4/1,2:30,3.5,0,90.7,0,24.2,0,34.2,0,21.9,0,,1,22.4,0,11.8,0
2003/4/1,2:45,3.8,0,87.7,0,24.2,0,34,0,21.9,0,,1,22.4,0,12,0
2003/4/1,3:00,4.4,0,79.9,0,24.2,0,33.7,0,21.8,0,,1,22.4,0,12.2,0
2003/4/1,3:15,5.1,0,71.4,0,24.2,0,33.4,0,21.7,0,,1,22.4,0,12.5,0
2003/4/1,3:30,5.1,0,72.7,0,24.2,0,33.3,0,21.6,0,,1,22.4,0,12.7,0
2003/4/1,3:45,4.9,0,76.6,0,24.3,0,33,0,21.6,0,,1,22.4,0,12.9,0
2003/4/1,4:00,5,0,76,0,24.3,0,33,0,21.5,0,,1,22.4,0,13.1,0
2003/4/1,4:15,5.2,0,73.3,0,24.2,0,32.9,0,21.4,0,,1,22.4,0,13.3,0
2003/4/1,4:30,5.3,0,70.9,0,24.2,0,32.6,0,21.4,0,,1,22.4,0,13.5,0
2003/4/1,4:45,5.5,0,71.2,0,24.2,0,32.4,0,21.3,0,,1,22.4,0,13.7,0
2003/4/1,5:00,5.6,0,69.3,0,24.2,0,32.3,0,21.3,0,,1,22.4,0,13.9,0
2003/4/1,5:15,5.5,0,71.3,0,24.2,0,32.2,0,21.2,0,,1,22.4,0,14.1,0
2003/4/1,5:30,5,0,74,0,24.3,0,32.1,0,21.1,0,,1,22.4,0,14.3,0
2003/4/1,5:45,5.3,0,73.6,0,24.3,0,31.9,0,21.1,0,,1,22.4,0,14.5,0
2003/4/1,6:00,5.3,0,74.6,0,24.3,0,31.8,0,21,0,,1,22.4,0,14.6,0
2003/4/1,6:15,5.7,0,74.4,0,24.3,0,31.8,0,21,0,,1,22.4,0,14.8,0
2003/4/1,6:30,6.2,0,71.2,0,24.3,0,31.6,0,20.9,0,,1,22.5,0,15,0
2003/4/1,6:45,6.7,0,70.3,0,24.3,0,31.4,0,21,0,,1,22.5,0,15.2,0
2003/4/1,7:00,7.1,0,68.2,0,24.3,0,31.5,0,21.1,0,,1,22.5,0,15.4,0
2003/4/1,7:15,7.5,0,66.7,0,24.3,0,31.5,0,21.3,0,,1,22.5,0,15.6,0
2003/4/1,7:30,8,0,63.4,0,24.1,0,32.1,0,21.5,0,,1,22.4,0,9.8,0
2003/4/1,7:45,8.3,0,63.4,0,24,0,32.4,0,21.7,0,,1,22.4,0,9.2,0
2003/4/1,8:00,8.7,0,62.2,0,24,0,32.4,0,21.9,0,,1,22.4,0,9.4,0
2003/4/1,8:15,8.9,0,59.6,0,23.8,0,31.9,0,22,0,,1,22.3,0,9.6,0
2003/4/1,8:30,9.1,0,59.3,0,24,0,32,0,22.2,0,,1,22.3,0,8.7,0
2003/4/1,8:45,9.5,0,57.5,0,23.7,0,32.3,0,22.3,0,,1,21.3,0,8.8,0
2003/4/1,9:00,9.8,0,53,0,23.7,0,31.3,0,22.5,0,,1,20.7,0,9.1,0
2003/4/1,9:15,10.3,0,47.3,0,23.4,0,32.2,0,22.6,0,,1,21.2,0,9.3,0
2003/4/1,9:30,11.1,0,45.3,0,23.5,0,32.7,0,22.6,0,,1,21.5,0,9.5,0
2003/4/1,9:45,10.9,0,44.4,0,23.6,0,32.7,0,22.7,0,,1,21.7,0,9.7,0
2003/4/1,10:00,11.5,0,44.1,0,23.9,0,32,0,22.7,0,,1,21.9,0,9.9,0
2003/4/1,10:15,11.4,0,39.4,0,24,0,32.5,0,22.8,0,,1,22,0,10.1,0
2003/4/1,10:30,12.2,0,37.9,0,24.1,0,32.7,0,22.9,0,,1,22.1,0,10.4,0
2003/4/1,10:45,11.5,0,38.5,0,24,0,33.4,0,22.9,0,,1,22.1,0,10.9,0
2003/4/1,11:00,11.8,0,56.2,0,24.1,0,33.8,0,23,0,,1,22.2,0,11.1,0
2003/4/1,11:15,10.6,0,62.4,0,24.1,0,34.3,0,23,0,,1,22.3,0,11.3,0
2003/4/1,11:30,11.2,0,63.4,0,24.2,0,35.1,0,23.1,0,,1,22.4,0,10.7,0
2003/4/1,11:45,11,0,62.1,0,24.2,0,35.4,0,23.1,0,,1,22.4,0,11,0
2003/4/1,12:00,11.3,0,60.4,0,24.2,0,35.3,0,23.1,0,,1,22.5,0,11.2,0
2003/4/1,12:15,11.9,0,57.7,0,24.3,0,35.3,0,23.1,0,,1,22.5,0,11.4,0
2003/4/1,12:30,12.1,0,55.8,0,24.3,0,35,0,23.1,0,,1,22.6,0,11.6,0
2003/4/1,12:45,12.3,0,56.1,0,24.4,0,35,0,23.1,0,,1,22.7,0,11.8,0
2003/4/1,13:00,12.8,0,53.8,0,24.4,0,35,0,23.1,0,,1,22.7,0,12.1,0
2003/4/1,13:15,12.7,0,51.9,0,24.4,0,34.3,0,23.1,0,,1,22.7,0,11.3,0
2003/4/1,13:30,12.9,0,54.3,0,24.4,0,34.2,0,23.1,0,,1,22.8,0,11.5,0
2003/4/1,13:45,12.8,0,56.3,0,24.3,0,34.2,0,23.1,0,,1,22.8,0,11.7,0
2003/4/1,14:00,12.3,0,58.9,0,24.3,0,34,0,23.1,0,,1,22.8,0,11.9,0
2003/4/1,14:15,12.4,0,56.8,0,24.2,0,34,0,23.1,0,,1,22.8,0,12.2,0
2003/4/1,14:30,12.5,0,56.7,0,24.2,0,33.9,0,23.1,0,,1,22.8,0,12.4,0
2003/4/1,14:45,12.3,0,56.8,0,24.2,0,33.6,0,23,0,,1,22.8,0,12.6,0
2003/4/1,15:00,12.3,0,56.6,0,24.3,0,33.9,0,23,0,,1,22.9,0,12.8,0
2003/4/1,15:15,11.6,0,59.2,0,24.2,0,34.2,0,23,0,,1,22.9,0,11.4,0
2003/4/1,15:30,11.5,0,59.1,0,24.2,0,34.3,0,23,0,,1,22.9,0,10.8,0
2003/4/1,15:45,11,0,60.4,0,24.2,0,33.9,0,23,0,,1,22.9,0,11,0
2003/4/1,16:00,10.6,0,60.5,0,24.3,0,33.7,0,22.9,0,,1,22.9,0,10.6,0
2003/4/1,16:15,10.6,0,61.8,0,24.2,0,34,0,22.9,0,,1,22.9,0,10.8,0
2003/4/1,16:30,10.1,0,62.4,0,24.2,0,33.7,0,22.9,0,,1,22.9,0,11.1,0
2003/4/1,16:45,9.7,0,63.9,0,24.1,0,33.8,0,22.9,0,,1,22.9,0,9.7,0
2003/4/1,17:00,9.5,0,62.9,0,23.9,0,33.9,0,22.8,0,,1,22.8,0,9.9,0
2003/4/1,17:15,9.2,0,64.7,0,23.6,0,34.8,0,22.8,0,,1,22.7,0,10.1,0
2003/4/1,17:30,8.6,0,66,0,23.9,0,33.3,0,22.7,0,,1,22.6,0,10.4,0
2003/4/1,17:45,8.3,0,67.8,0,23.9,0,33,0,22.7,0,,1,22.6,0,10.6,0
2003/4/1,18:00,7.6,0,71.3,0,23.9,0,32.6,0,22.6,0,,1,22.5,0,10.9,0
2003/4/1,18:15,7.1,0,72.5,0,24,0,32.2,0,22.6,0,,1,22.5,0,11.2,0
2003/4/1,18:30,6.7,0,72.7,0,24,0,32,0,22.6,0,,1,22.5,0,11.4,0
2003/4/1,18:45,6.5,0,73.2,0,24,0,31.8,0,22.5,0,,1,22.5,0,11.7,0
2003/4/1,19:00,6.4,0,74.1,0,24,0,31.6,0,22.5,0,,1,22.4,0,12,0
2003/4/1,19:15,6.2,0,75.4,0,23.9,0,31.4,0,22.4,0,,1,22.4,0,12.3,0
2003/4/1,19:30,6.2,0,77.2,0,24,0,31.2,0,22.4,0,,1,22.3,0,12.5,0
2003/4/1,19:45,5.8,0,80,0,23.9,0,31.3,0,22.4,0,,1,22.3,0,12.7,0
2003/4/1,20:00,5.6,0,80.4,0,23.9,0,31.3,0,22.3,0,,1,22.3,0,12.8,0
2003/4/1,20:15,5.4,0,81.8,0,23.9,0,31.2,0,22.3,0,,1,22.3,0,13,0
2003/4/1,20:30,5.2,0,83,0,23.9,0,31.1,0,22.3,0,,1,22.3,0,13.2,0
2003/4/1,20:45,4.9,0,84.1,0,23.9,0,30.8,0,22.2,0,,1,22.3,0,13.4,0
2003/4/1,21:00,4.7,0,84.5,0,24,0,30.8,0,22.2,0,,1,22.3,0,13.5,0
2003/4/1,21:15,5.3,0,84.7,0,23.9,0,30.6,0,22.2,0,,1,22.3,0,12.3,0
2003/4/1,21:30,5.4,0,84.3,0,23.9,0,30.7,0,22.1,0,,1,22.3,0,12.4,0
2003/4/1,21:45,5.8,0,86.6,0,23.9,0,30.5,0,22.1,0,,1,22.3,0,12.6,0
2003/4/1,22:00,5.8,0,86.4,0,23.9,0,30.5,0,22.1,0,,1,22.3,0,12.8,0
2003/4/1,22:15,5.7,0,85.8,0,23.9,0,30.5,0,22.1,0,,1,22.3,0,13,0
2003/4/1,22:30,5.7,0,87.5,0,23.9,0,30.6,0,22,0,,1,22.3,0,11.5,0
2003/4/1,22:45,5.5,0,87.7,0,23.9,0,30.8,0,22,0,,1,22.4,0,11.7,0
2003/4/1,23:00,5.5,0,88.5,0,23.7,0,31.5,0,22,0,,1,22.3,0,10,0
2003/4/1,23:15,5.5,0,87.1,0,23.7,0,31.9,0,21.9,0,,1,22.3,0,10.2,0
2003/4/1,23:30,5.5,0,88.9,0,23.6,0,31.7,0,21.9,0,,1,22.3,0,10.5,0
2003/4/1,23:45,5.3,0,91.4,0,23.9,0,31.4,0,21.9,0,,1,22.2,0,10.7,0
2003/4/2,0:00,5.2,0,91.2,0,24,0,31.2,0,21.9,0,,1,22.4,0,10.9,0
2003/4/2,0:15,5.4,0,90.4,0,24.1,0,31.2,0,21.9,0,,1,22.5,0,11.2,0
2003/4/2,0:30,5.4,0,92,0,24.1,0,31.1,0,21.9,0,,1,22.5,0,11.4,0
2003/4/2,0:45,5.4,0,93.3,0,24.2,0,31.1,0,21.9,0,,1,22.5,0,11.6,0
2003/4/2,1:00,5.6,0,92.3,0,24.3,0,31.1,0,21.9,0,,1,22.5,0,11.8,0
2003/4/2,1:15,5.6,0,92.7,0,24.3,0,31,0,21.9,0,,1,22.6,0,12.1,0
2003/4/2,1:30,5.7,0,94,0,24.4,0,31.1,0,21.9,0,,1,22.6,0,12.3,0
2003/4/2,1:45,5.2,0,94.3,0,24.5,0,30.9,0,21.9,0,,1,22.7,0,12.6,0
2003/4/2,2:00,4.8,0,96.1,0,24.5,0,31.5,0,21.9,0,,1,22.7,0,12.8,0
2003/4/2,2:15,4.5,0,97.4,0,24.6,0,31.9,0,21.8,0,,1,22.8,0,13,0
2003/4/2,2:30,4.3,0,98.4,0,24.7,0,31.9,0,21.7,0,,1,22.8,0,13.2,0
2003/4/2,2:45,3.7,0,98.6,0,24.7,0,31.8,0,21.7,0,,1,22.8,0,13.4,0
2003/4/2,3:00,3.7,0,99.1,0,24.7,0,31.6,0,21.6,0,,1,22.8,0,13.7,0
2003/4/2,3:15,3.7,0,100,0,24.8,0,31.5,0,21.5,0,,1,22.9,0,13.9,0
2003/4/2,3:30,3.7,0,100,0,24.8,0,31.5,0,21.4,0,,1,22.9,0,14.1,0
2003/4/2,3:45,3.4,0,100,0,24.8,0,31.4,0,21.4,0,,1,22.9,0,14.3,0
2003/4/2,4:00,3.2,0,100,0,24.7,0,31.4,0,21.3,0,,1,22.9,0,14.5,0
2003/4/2,4:15,3,0,100,0,24.8,0,31.2,0,21.2,0,,1,22.9,0,14.7,0
2003/4/2,4:30,3,0,100,0,24.9,0,31,0,21.1,0,,1,23,0,14.9,0
2003/4/2,4:45,2.5,0,100,0,24.9,0,30.9,0,21,0,,1,23,0,15.1,0
2003/4/2,5:00,2.4,0,100,0,24.9,0,30.9,0,20.9,0,,1,23,0,15.3,0
2003/4/2,5:15,2.3,0,100,0,24.9,0,30.7,0,20.9,0,,1,23,0,15.6,0
2003/4/2,5:30,2.2,0,100,0,25,0,30.6,0,20.8,0,,1,23,0,15.8,0
2003/4/2,5:45,2.4,0,100,0,25,0,30.5,0,20.7,0,,1,23.1,0,16,0
2003/4/2,6:00,2.7,0,100,0,25.1,0,30.4,0,20.6,0,,1,23.1,0,16.2,0
2003/4/2,6:15,3.2,0,100,0,25.1,0,30.3,0,20.6,0,,1,23.2,0,16.4,0
2003/4/2,6:30,3.5,0,98.8,0,25,0,30.4,0,20.5,0,,1,23.1,0,16.6,0
2003/4/2,6:45,3.8,0,96.5,0,25,0,30.4,0,20.5,0,,1,23.1,0,16.8,0
2003/4/2,7:00,4.1,0,92.1,0,24.9,0,30.4,0,20.4,0,,1,23.1,0,17,0
2003/4/2,7:15,4.9,0,90.3,0,24.9,0,30.4,0,20.4,0,,1,23.1,0,17.2,0
2003/4/2,7:30,5.3,0,86.6,0,24.9,0,30.4,0,20.4,0,,1,23.1,0,17.3,0
2003/4/2,7:45,6.1,0,86.2,0,24.9,0,30.4,0,20.5,0,,1,23.1,0,17.5,0
2003/4/2,8:00,6.5,0,84.3,0,24.9,0,30.4,0,20.5,0,,1,23.1,0,17.7,0
2003/4/2,8:15,7.1,0,81.4,0,24.9,0,30.5,0,20.6,0,,1,23.1,0,17.8,0
2003/4/2,8:30,7.8,0,73.7,0,24.8,0,30.6,0,20.6,0,,1,23.1,0,18,0
2003/4/2,8:45,8.2,0,68.9,0,24.9,0,30.6,0,20.7,0,,1,23.1,0,18.1,0
2003/4/2,9:00,8.5,0,67.7,0,24.8,0,30.5,0,20.7,0,,1,23.2,0,18.3,0
2003/4/2,9:15,9.1,0,66.2,0,24.7,0,30.9,0,20.8,0,,1,23.2,0,18.4,0
2003/4/2,9:30,9.7,0,65.7,0,24.3,0,31.3,0,20.9,0,,1,23,0,14.1,0
2003/4/2,9:45,9.9,0,64,0,24.2,0,31.1,0,21,0,,1,22.9,0,11.2,0
2003/4/2,10:00,10.6,0,61.1,0,24.2,0,30.8,0,21.1,0,,1,22.9,0,11.4,0
2003/4/2,10:15,11,0,64.8,0,24.2,0,31.1,0,21.2,0,,1,22.9,0,11.6,0
2003/4/2,10:30,11.2,0,64.5,0,24,0,32.7,0,21.4,0,,1,22.8,0,11.8,0
2003/4/2,10:45,11.2,0,65.6,0,23.9,0,32.5,0,21.4,0,,1,22.8,0,12,0
2003/4/2,11:00,11.8,0,65.4,0,23.9,0,32.6,0,21.5,0,,1,22.7,0,10.2,0
2003/4/2,11:15,11.8,0,64.8,0,23.9,0,32.9,0,21.6,0,,1,22.7,0,8.7,0
2003/4/2,11:30,12,0,63.1,0,23.8,0,33.5,0,21.6,0,,1,22.7,0,8.9,0
2003/4/2,11:45,12.2,0,63.6,0,23.8,0,33.5,0,21.7,0,,1,22.7,0,9.1,0
2003/4/2,12:00,12.3,0,63.2,0,23.8,0,33.2,0,21.8,0,,1,22.7,0,9.3,0
2003/4/2,12:15,12.2,0,62.7,0,23.8,0,33.4,0,21.8,0,,1,22.7,0,9.5,0
2003/4/2,12:30,12.2,0,64.7,0,23.6,0,33.5,0,21.9,0,,1,22.7,0,9.7,0
2003/4/2,12:45,12,0,64.3,0,23.6,0,33.5,0,21.9,0,,1,22.7,0,10,0
2003/4/2,13:00,12.6,0,62.1,0,23.6,0,33.6,0,21.9,0,,1,22.7,0,10.3,0
2003/4/2,13:15,12.8,0,64.3,0,23.5,0,33.7,0,22,0,,1,22.7,0,10.6,0
2003/4/2,13:30,12.9,0,63.6,0,23.5,0,33.8,0,22,0,,1,22.7,0,10.8,0
2003/4/2,13:45,12.7,0,64.1,0,23.5,0,33.8,0,22,0,,1,22.7,0,11.2,0
2003/4/2,14:00,12.2,0,67,0,23.5,0,33.8,0,22,0,,1,22.7,0,11.4,0
2003/4/2,14:15,12.2,0,66.9,0,23.4,0,34,0,22,0,,1,22.6,0,11.7,0
2003/4/2,14:30,12.2,0,67.8,0,23.4,0,34.2,0,22.1,0,,1,22.5,0,12,0
2003/4/2,14:45,11.7,0,67.6,0,23.4,0,34,0,22.1,0,,1,22.5,0,12.3,0
2003/4/2,15:00,11.5,0,68.7,0,23.4,0,34.1,0,22.1,0,,1,22.5,0,12.6,0
2003/4/2,15:15,11.4,0,70.3,0,23.3,0,34.2,0,22.1,0,,1,22.5,0,12.9,0
2003/4/2,15:30,11.2,0,71.8,0,23.3,0,34.3,0,22.1,0,,1,22.4,0,13.2,0
2003/4/2,15:45,11,0,72.7,0,23.3,0,34.2,0,22.1,0,,1,22.4,0,13.5,0
2003/4/2,16:00,10.9,0,73.7,0,23.4,0,34.1,0,22.1,0,,1,22.4,0,13.7,0
2003/4/2,16:15,10.8,0,75.9,0,23.2,0,34.4,0,22.1,0,,1,22.4,0,14,0
2003/4/2,16:30,10.8,0,76.9,0,23.3,0,34.3,0,22.1,0,,1,22.4,0,14.2,0
2003/4/2,16:45,10.4,0,80.1,0,23.4,0,34.1,0,22.1,0,,1,22.3,0,14.5,0
2003/4/2,17:00,10.2,0,81,0,23.2,0,34.5,0,22.1,0,,1,22.3,0,14.7,0
2003/4/2,17:15,9.9,0,83.2,0,23.2,0,34.5,0,22.1,0,,1,22.3,0,15,0
2003/4/2,17:30,9.7,0,84.5,0,23.3,0,34.3,0,22.1,0,,1,22.2,0,15.2,0
2003/4/2,17:45,9.6,0,84.5,0,23.1,0,34.6,0,22.1,0,,1,22.2,0,15.5,0
2003/4/2,18:00,9.4,0,86.6,0,23.2,0,34.6,0,22,0,,1,22.2,0,15.7,0
2003/4/2,18:15,9.2,0,87.7,0,23.2,0,34.4,0,22,0,,1,22.1,0,16,0
2003/4/2,18:30,9,0,89.2,0,23.2,0,34.4,0,22,0,,1,22.1,0,16.2,0
2003/4/2,18:45,8.7,0,90.8,0,23.1,0,34.7,0,22,0,,1,22.1,0,16.4,0
2003/4/2,19:00,8.8,0,90.1,0,23.1,0,34.6,0,22,0,,1,22.1,0,16.7,0
2003/4/2,19:15,8.5,0,90.9,0,23.2,0,34.5,0,22,0,,1,22.1,0,16.8,0
2003/4/2,19:30,8.5,0,91.1,0,23.4,0,34.4,0,22,0,,1,22,0,17,0
2003/4/2,19:45,8.3,0,92.9,0,23.4,0,34.3,0,22,0,,1,22.1,0,17.2,0
2003/4/2,20:00,8.2,0,93.2,0,23.4,0,34.5,0,22,0,,1,22.1,0,14.5,0
2003/4/2,20:15,8.2,0,92.8,0,23.2,0,35,0,22,0,,1,22,0,14.6,0
2003/4/2,20:30,8.2,0,92.5,0,23.3,0,35.1,0,22,0,,1,22,0,12.2,0
2003/4/2,20:45,8.1,0,93.6,0,23.4,0,35,0,22,0,,1,22,0,12.3,0
2003/4/2,21:00,7.9,0,94.6,0,23.4,0,35.3,0,22,0,,1,22,0,12.5,0
2003/4/2,21:15,7.9,0,94.4,0,23.4,0,35.3,0,22,0,,1,22.1,0,11.6,0
2003/4/2,21:30,7.9,0,94.2,0,23.5,0,35.1,0,22,0,,1,22.1,0,11.7,0
2003/4/2,21:45,8.2,0,92.2,0,23.6,0,35.1,0,22,0,,1,22.1,0,11.9,0
2003/4/2,22:00,8.1,0,93,0,23.7,0,34.9,0,22.1,0,,1,22.1,0,12.1,0
2003/4/2,22:15,8.2,0,91.3,0,23.8,0,34.8,0,22.1,0,,1,22.2,0,12.3,0
2003/4/2,22:30,7.9,0,92.1,0,23.7,0,34.9,0,22.1,0,,1,22.2,0,12.5,0
2003/4/2,22:45,7.9,0,94.1,0,23.7,0,35.4,0,22.1,0,,1,22.2,0,12.7,0
2003/4/2,23:00,7.8,0,94.6,0,23.8,0,36.1,0,22.1,0,,1,22.2,0,10.2,0
2003/4/2,23:15,7.4,0,94.3,0,23.7,0,36.5,0,22.1,0,,1,22.2,0,10.5,0
2003/4/2,23:30,7.4,0,96.5,0,23.9,0,36.9,0,22.1,0,,1,22.2,0,10.7,0
2003/4/2,23:45,7.3,0,95.3,0,23.7,0,37,0,22.2,0,,1,22.2,0,10.9,0
2003/4/3,0:00,6.9,0,96.8,0,23.8,0,37.1,0,22.2,0,,1,22.2,0,11.2,0
2003/4/3,0:15,6.5,0,97.7,0,23.8,0,37.2,0,22.2,0,,1,22.3,0,11.3,0
2003/4/3,0:30,5.9,0,98.4,0,23.8,0,37.3,0,22.2,0,,1,22.3,0,11.6,0
2003/4/3,0:45,5.6,0,98.7,0,23.9,0,37.2,0,22.2,0,,1,22.3,0,11.8,0
2003/4/3,1:00,5.6,0,93.9,0,23.9,0,37.3,0,22.3,0,,1,22.3,0,12,0
2003/4/3,1:15,5.2,0,94.4,0,24,0,37.3,0,22.3,0,,1,22.3,0,12.2,0
2003/4/3,1:30,5,0,93.9,0,24,0,37.2,0,22.2,0,,1,22.3,0,12.4,0
2003/4/3,1:45,4.4,0,97.6,0,24.1,0,37,0,22.2,0,,1,22.3,0,12.6,0
2003/4/3,2:00,4,0,98,0,24.1,0,36.8,0,22.1,0,,1,22.3,0,12.8,0
2003/4/3,2:15,3.6,0,98.7,0,24.1,0,36.6,0,22.1,0,,1,22.3,0,13,0
2003/4/3,2:30,3.4,0,99.8,0,24.1,0,36.3,0,22.1,0,,1,22.3,0,13.2,0
2003/4/3,2:45,3.3,0,99.5,0,24.1,0,36,0,22,0,,1,22.3,0,13.4,0
2003/4/3,3:00,3.2,0,99.9,0,24.1,0,35.8,0,21.9,0,,1,22.3,0,13.6,0
2003/4/3,3:15,3,0,99.7,0,24.1,0,35.6,0,21.8,0,,1,22.3,0,13.7,0
2003/4/3,3:30,2.9,0,100,0,24.1,0,35.4,0,21.8,0,,1,22.3,0,13.9,0
2003/4/3,3:45,2.9,0,99.6,0,24.2,0,35,0,21.7,0,,1,22.3,0,14.1,0
2003/4/3,4:00,2.6,0,99.5,0,24.2,0,34.8,0,21.6,0,,1,22.3,0,14.3,0
2003/4/3,4:15,2.4,0,99.1,0,24.2,0,34.5,0,21.5,0,,1,22.3,0,14.4,0
2003/4/3,4:30,2.1,0,100,0,24.2,0,34.4,0,21.5,0,,1,22.3,0,14.6,0
2003/4/3,4:45,2.1,0,98.7,0,24.2,0,34.2,0,21.4,0,,1,22.3,0,14.8,0
2003/4/3,5:00,2.1,0,97.6,0,24.2,0,34,0,21.3,0,,1,22.3,0,14.9,0
2003/4/3,5:15,1.9,0,98.1,0,24.2,0,33.8,0,21.2,0,,1,22.3,0,15.1,0
2003/4/3,5:30,1.7,0,97.1,0,24.2,0,33.6,0,21.2,0,,1,22.3,0,15.3,0
2003/4/3,5:45,2.2,0,92.6,0,24.2,0,33.4,0,21.1,0,,1,22.3,0,15.5,0
2003/4/3,6:00,2.6,0,89.7,0,24.2,0,33.3,0,21.1,0,,1,22.3,0,15.7,0
2003/4/3,6:15,3.1,0,84.1,0,24.3,0,33,0,21,0,,1,22.3,0,15.9,0
2003/4/3,6:30,3.6,0,81.4,0,24.3,0,32.7,0,21,0,,1,22.3,0,16,0
2003/4/3,6:45,4,0,78.9,0,24.2,0,32.7,0,21,0,,1,22.3,0,16.2,0
2003/4/3,7:00,4.5,0,78.2,0,24.4,0,32.5,0,21.1,0,,1,22.4,0,16.4,0
2003/4/3,7:15,5.3,0,73.7,0,24.4,0,32.3,0,21.2,0,,1,22.4,0,16.6,0
2003/4/3,7:30,5.8,0,69.2,0,23.8,0,33.4,0,21.3,0,,1,22.3,0,14.3,0
2003/4/3,7:45,6.4,0,68.1,0,23.6,0,34,0,21.5,0,,1,22.2,0,14.4,0
2003/4/3,8:00,7.4,0,66,0,23.4,0,34.3,0,21.7,0,,1,22.1,0,10.2,0
2003/4/3,8:15,7.8,0,61.2,0,23.5,0,33.8,0,21.8,0,,1,22.1,0,10.4,0
2003/4/3,8:30,8.5,0,56.7,0,23.5,0,34.3,0,22,0,,1,22.1,0,10.6,0
2003/4/3,8:45,8.9,0,56,0,23.6,0,34,0,22.1,0,,1,22.1,0,10.8,0
2003/4/3,9:00,9.5,0,53.4,0,23.5,0,33.9,0,22.2,0,,1,22.1,0,11,0
2003/4/3,9:15,9.7,0,54.3,0,23.5,0,33.9,0,22.3,0,,1,22.1,0,11.3,0
2003/4/3,9:30,10.7,0,50.3,0,23.5,0,33.8,0,22.4,0,,1,22,0,11.5,0
2003/4/3,9:45,11.2,0,49.7,0,23.5,0,33.7,0,22.5,0,,1,22,0,11.7,0
2003/4/3,10:00,10.9,0,50.6,0,23.6,0,33.6,0,22.6,0,,1,22,0,12,0
2003/4/3,10:15,11.4,0,48.3,0,23.6,0,33.5,0,22.6,0,,1,22.1,0,12.2,0
2003/4/3,10:30,11.3,0,47.4,0,23.6,0,33.4,0,22.7,0,,1,22.1,0,12.4,0
2003/4/3,10:45,11.7,0,50.3,0,23.7,0,33.4,0,22.7,0,,1,22.1,0,12.7,0
2003/4/3,11:00,11.6,0,51,0,23.7,0,33.3,0,22.7,0,,1,22.1,0,12.9,0
2003/4/3,11:15,12,0,47.2,0,23.8,0,33.3,0,22.7,0,,1,22.2,0,13.1,0
2003/4/3,11:30,11.7,0,45.3,0,23.8,0,33.2,0,22.7,0,,1,22.2,0,13.4,0
2003/4/3,11:45,11.9,0,44.6,0,23.8,0,33.2,0,22.8,0,,1,22.2,0,13.6,0
2003/4/3,12:00,12.2,0,43.1,0,23.8,0,33.1,0,22.8,0,,1,22.2,0,13.8,0
2003/4/3,12:15,12.6,0,41.4,0,23.8,0,33,0,22.8,0,,1,22.2,0,14,0
2003/4/3,12:30,11.9,0,42.5,0,23.8,0,32.9,0,22.8,0,,1,22.2,0,14.3,0
2003/4/3,12:45,12.4,0,41.8,0,23.8,0,33,0,22.8,0,,1,22.3,0,14.5,0
2003/4/3,13:00,12.3,0,41.1,0,23.7,0,33,0,22.8,0,,1,22.3,0,14.7,0
2003/4/3,13:15,12.6,0,40.5,0,23.7,0,33,0,22.7,0,,1,22.3,0,14.9,0
2003/4/3,13:30,12.8,0,41.9,0,23.7,0,33,0,22.7,0,,1,22.3,0,15.1,0
2003/4/3,13:45,12.5,0,44.1,0,23.7,0,33,0,22.7,0,,1,22.3,0,15.4,0
2003/4/3,14:00,12.3,0,41.8,0,23.6,0,33.1,0,22.7,0,,1,22.3,0,15.7,0
2003/4/3,14:15,11.8,0,43.1,0,23.6,0,33.1,0,22.7,0,,1,22.4,0,15.9,0
2003/4/3,14:30,12.7,0,40,0,23.6,0,33.2,0,22.7,0,,1,22.4,0,16.1,0
2003/4/3,14:45,12.2,0,40.6,0,23.6,0,33,0,22.7,0,,1,22.4,0,16.4,0
2003/4/3,15:00,12.3,0,38.6,0,23.6,0,33.1,0,22.7,0,,1,22.4,0,16.6,0
2003/4/3,15:15,12,0,36.1,0,23.6,0,33,0,22.7,0,,1,22.5,0,16.8,0
2003/4/3,15:30,12.1,0,35.4,0,23.6,0,32.9,0,22.7,0,,1,22.5,0,17,0
2003/4/3,15:45,11.6,0,37.4,0,23.6,0,33.1,0,22.6,0,,1,22.5,0,17.3,0
2003/4/3,16:00,11.5,0,35.7,0,23.6,0,32.9,0,22.6,0,,1,22.5,0,17.5,0
2003/4/3,16:15,11.1,0,36.1,0,23.6,0,32.8,0,22.6,0,,1,22.5,0,17.7,0
2003/4/3,16:30,10.4,0,37.2,0,23.5,0,32.6,0,22.6,0,,1,22.5,0,17.9,0
2003/4/3,16:45,10.2,0,36.2,0,23.5,0,32.7,0,22.6,0,,1,22.5,0,18.1,0
2003/4/3,17:00,9.7,0,37.8,0,23.6,0,32.5,0,22.6,0,,1,22.5,0,18.2,0
2003/4/3,17:15,9.3,0,40.4,0,23.6,0,32.2,0,22.5,0,,1,22.4,0,18.5,0
2003/4/3,17:30,8.6,0,46.8,0,23.6,0,32.2,0,22.5,0,,1,22.4,0,18.6,0
2003/4/3,17:45,8.1,0,50.5,0,23.5,0,32.2,0,22.5,0,,1,22.3,0,18.8,0
2003/4/3,18:00,7.9,0,51.4,0,23.4,0,32.3,0,22.5,0,,1,22.3,0,18.9,0
2003/4/3,18:15,7.7,0,55.1,0,23.5,0,32.2,0,22.4,0,,1,22.2,0,19.1,0
2003/4/3,18:30,6.9,0,62.5,0,23.5,0,32.1,0,22.4,0,,1,22.2,0,19.2,0
2003/4/3,18:45,6.2,0,66.6,0,23.4,0,32.1,0,22.4,0,,1,22.1,0,19.4,0
2003/4/3,19:00,5.4,0,68.1,0,23.3,0,32.3,0,22.4,0,,1,22.1,0,19.5,0
2003/4/3,19:15,4.8,0,69.9,0,23.4,0,32.1,0,22.3,0,,1,22.1,0,19.7,0
2003/4/3,19:30,4.5,0,73.6,0,23.4,0,31.9,0,22.3,0,,1,22,0,19.8,0
2003/4/3,19:45,4,0,73.7,0,23.3,0,32.1,0,22.3,0,,1,22,0,19.9,0
2003/4/3,20:00,3.9,0,77.3,0,23.3,0,32,0,22.3,0,,1,21.9,0,20,0
2003/4/3,20:15,3.6,0,79,0,23.3,0,31.8,0,22.2,0,,1,21.9,0,20.2,0
2003/4/3,20:30,3.3,0,81.8,0,23.3,0,32,0,22.2,0,,1,21.9,0,20.3,0
2003/4/3,20:45,3.1,0,85.1,0,23.4,0,31.8,0,22.2,0,,1,21.9,0,13.1,0
2003/4/3,21:00,3.1,0,86,0,23.4,0,32,0,22.2,0,,1,21.8,0,13.2,0
2003/4/3,21:15,2.7,0,88.6,0,23.4,0,32.2,0,22.1,0,,1,21.8,0,13.4,0
2003/4/3,21:30,2.7,0,89.6,0,23.4,0,32.3,0,22.1,0,,1,21.9,0,13.6,0
2003/4/3,21:45,2.6,0,92,0,23.4,0,32.1,0,22.1,0,,1,21.9,0,13.8,0
2003/4/3,22:00,3.1,0,91.8,0,23.4,0,32.1,0,22.1,0,,1,21.9,0,11.4,0
2003/4/3,22:15,2.8,0,92.9,0,23.4,0,32.2,0,22.1,0,,1,21.9,0,11.5,0
2003/4/3,22:30,2.7,0,93,0,23.4,0,32.3,0,22.1,0,,1,21.9,0,10.7,0
2003/4/3,22:45,2.6,0,94.6,0,23.4,0,32.5,0,22.1,0,,1,21.9,0,10.8,0
2003/4/3,23:00,2.3,0,95.4,0,23.3,0,32.7,0,22,0,,1,21.9,0,11.1,0
2003/4/3,23:15,2.2,0,96.3,0,23.6,0,32.3,0,22,0,,1,21.9,0,11.3,0
2003/4/3,23:30,2,0,95.8,0,23.3,0,32.7,0,22,0,,1,21.8,0,11.5,0
2003/4/3,23:45,1.7,0,97.2,0,23.6,0,32.6,0,22,0,,1,21.9,0,11.7,0
2003/4/4,0:00,1.5,0,97.4,0,23.7,0,32.5,0,22,0,,1,21.9,0,11.9,0
2003/4/4,0:15,1.4,0,97.2,0,25,0,30.3,0,22.1,0,,1,22.1,0,12.2,0
2003/4/4,0:30,1.1,0,98.9,0,24.3,0,31.6,0,22.1,0,,1,22.2,0,12.4,0
2003/4/4,0:45,1.3,0,98.4,0,25.1,0,31.1,0,22.1,0,,1,22.3,0,12.6,0
2003/4/4,1:00,1,0,97.6,0,24.4,0,32,0,22.2,0,,1,22.3,0,12.8,0
2003/4/4,1:15,0.9,0,99.8,0,24.5,0,31.4,0,22.2,0,,1,22.4,0,13.1,0
2003/4/4,1:30,0.7,0,100,0,24.6,0,31.2,0,22.1,0,,1,22.4,0,13.3,0
2003/4/4,1:45,0.7,0,100,0,24.6,0,31,0,22,0,,1,22.5,0,13.5,0
2003/4/4,2:00,0.6,0,100,0,24.7,0,31,0,21.9,0,,1,22.5,0,13.8,0
2003/4/4,2:15,0.5,0,100,0,24.7,0,30.9,0,21.8,0,,1,22.5,0,14,0
2003/4/4,2:30,0.6,0,100,0,24.8,0,30.8,0,21.7,0,,1,22.5,0,14.2,0
2003/4/4,2:45,0.6,0,100,0,24.8,0,30.7,0,21.6,0,,1,22.6,0,14.4,0
2003/4/4,3:00,0.4,0,100,0,24.8,0,30.7,0,21.5,0,,1,22.6,0,14.6,0
2003/4/4,3:15,0.3,0,100,0,24.9,0,30.6,0,21.4,0,,1,22.6,0,14.8,0
2003/4/4,3:30,0.2,0,100,0,24.9,0,30.5,0,21.3,0,,1,22.6,0,15,0
2003/4/4,3:45,0.2,0,100,0,24.9,0,30.4,0,21.3,0,,1,22.6,0,15.2,0
2003/4/4,4:00,0,0,100,0,24.9,0,30.3,0,21.2,0,,1,22.7,0,15.4,0
2003/4/4,4:15,-0.1,0,100,0,24.9,0,30.3,0,21.1,0,,1,22.7,0,15.6,0
2003/4/4,4:30,-0.1,0,100,0,25,0,30.1,0,21,0,,1,22.7,0,15.8,0
2003/4/4,4:45,0,0,100,0,24.9,0,30.1,0,20.9,0,,1,22.7,0,16,0
2003/4/4,5:00,0,0,100,0,25,0,30,0,20.9,0,,1,22.7,0,16.2,0
2003/4/4,5:15,0,0,100,0,25,0,29.9,0,20.8,0,,1,22.7,0,16.4,0
2003/4/4,5:30,0.1,0,100,0,25.1,0,29.8,0,20.7,0,,1,22.7,0,16.6,0
2003/4/4,5:45,0,0,100,0,25.1,0,29.7,0,20.6,0,,1,22.7,0,16.7,0
2003/4/4,6:00,0.3,0,100,0,25.1,0,29.6,0,20.5,0,,1,22.7,0,16.9,0
2003/4/4,6:15,0.7,0,100,0,25.1,0,29.5,0,20.5,0,,1,22.8,0,17.1,0
2003/4/4,6:30,1.1,0,98,0,25.2,0,29.4,0,20.4,0,,1,22.8,0,17.2,0
2003/4/4,6:45,1.7,0,98.9,0,25.2,0,29.4,0,20.4,0,,1,22.8,0,17.3,0
2003/4/4,7:00,2.4,0,97.5,0,25.2,0,29.3,0,20.4,0,,1,22.9,0,17.5,0
2003/4/4,7:15,3.2,0,89.1,0,25.3,0,29.3,0,20.5,0,,1,22.9,0,17.6,0
2003/4/4,7:30,3.7,0,84.6,0,25.4,0,29.2,0,20.6,0,,1,23,0,17.8,0
2003/4/4,7:45,4.3,0,86.1,0,25,0,29.6,0,20.9,0,,1,23,0,17.9,0
2003/4/4,8:00,5.2,0,86.4,0,24.9,0,29.7,0,21.2,0,,1,22.7,0,18,0
2003/4/4,8:15,5.8,0,84.9,0,24.9,0,29.6,0,21.4,0,,1,22.7,0,18.2,0
2003/4/4,8:30,6,0,79,0,25,0,29.5,0,21.7,0,,1,22.8,0,18.3,0
2003/4/4,8:45,6.5,0,74,0,24.8,0,29.7,0,21.9,0,,1,22.8,0,11.3,0
2003/4/4,9:00,7.7,0,69.5,0,24.6,0,31.7,0,22,0,,1,22.7,0,11.5,0
2003/4/4,9:15,7.5,0,68.3,0,24.5,0,33.2,0,22.2,0,,1,22.6,0,10.6,0
2003/4/4,9:30,7.5,0,67.1,0,24.6,0,33.9,0,22.3,0,,1,22.6,0,10.8,0
2003/4/4,9:45,8.1,0,69,0,24.5,0,34.1,0,22.5,0,,1,22.6,0,11,0
2003/4/4,10:00,8.6,0,64.1,0,24.6,0,34.7,0,22.6,0,,1,22.6,0,11.2,0
2003/4/4,10:15,8.8,0,63.2,0,24.6,0,33.8,0,22.7,0,,1,22.6,0,11.5,0
2003/4/4,10:30,9.3,0,57.7,0,24.8,0,32.8,0,22.7,0,,1,22.6,0,11.7,0
2003/4/4,10:45,9.8,0,54.7,0,24.8,0,32.4,0,22.8,0,,1,22.6,0,11.9,0
2003/4/4,11:00,9.2,0,51.3,0,25,0,32.5,0,22.8,0,,1,22.6,0,12.2,0
2003/4/4,11:15,9.9,0,47.3,0,24.9,0,31.8,0,22.9,0,,1,22.6,0,12.4,0
2003/4/4,11:30,9.8,0,46.7,0,24.7,0,32.6,0,22.9,0,,1,22.6,0,12.6,0
2003/4/4,11:45,10.1,0,45.1,0,24.8,0,31.7,0,23,0,,1,22.6,0,12.8,0
2003/4/4,12:00,10.5,0,39.3,0,25,0,31,0,23,0,,1,22.6,0,13.1,0
2003/4/4,12:15,10.9,0,36.7,0,24.8,0,31.2,0,23,0,,1,22.6,0,13.3,0
2003/4/4,12:30,11.2,0,37.1,0,24.4,0,30.6,0,23,0,,1,22.6,0,13.5,0
2003/4/4,12:45,10.5,0,40.8,0,24,0,29.7,0,23,0,,1,22.6,0,13.7,0
2003/4/4,13:00,11.1,0,35,0,23.6,0,28.9,0,23,0,,1,22.4,0,14,0
2003/4/4,13:15,11.1,0,36.5,0,23.4,0,28.2,0,23,0,,1,22.3,0,14.2,0
2003/4/4,13:30,11.7,0,34.4,0,23.6,0,27.5,0,22.9,0,,1,22.3,0,13.1,0
2003/4/4,13:45,11.9,0,29.7,0,23.5,0,27.5,0,22.9,0,,1,21.7,0,13.2,0
2003/4/4,14:00,11.3,0,33.7,0,23.5,0,27,0,22.9,0,,1,21.9,0,13.4,0
2003/4/4,14:15,10.5,0,38.4,0,23.4,0,27.2,0,22.8,0,,1,22,0,13.6,0
2003/4/4,14:30,10,0,42.1,0,23.4,0,27.4,0,22.8,0,,1,22.1,0,13.7,0
2003/4/4,14:45,10,0,41.3,0,23.4,0,27.2,0,22.8,0,,1,22.1,0,13.9,0
2003/4/4,15:00,10.3,0,47.1,0,23.4,0,27.4,0,22.8,0,,1,22.1,0,14.1,0
2003/4/4,15:15,10.1,0,46.7,0,23.4,0,27.6,0,22.8,0,,1,22.2,0,14.3,0
2003/4/4,15:30,9.4,0,44.5,0,23.4,0,28.2,0,22.8,0,,1,22.2,0,14.4,0
2003/4/4,15:45,9.2,0,49.3,0,23.6,0,28.5,0,22.7,0,,1,22.2,0,14.6,0
2003/4/4,16:00,9,0,61,0,23.7,0,28.9,0,22.7,0,,1,22.2,0,14.8,0
2003/4/4,16:15,8.8,0,65.3,0,23.8,0,29.2,0,22.7,0,,1,22.2,0,15,0
2003/4/4,16:30,8.5,0,69.7,0,23.9,0,29.2,0,22.7,0,,1,22.2,0,15.2,0
2003/4/4,16:45,8.4,0,69.2,0,23.8,0,29.7,0,22.7,0,,1,22.2,0,15.4,0
2003/4/4,17:00,8.2,0,69.7,0,23.9,0,29.8,0,22.7,0,,1,22.2,0,15.6,0
2003/4/4,17:15,7.9,0,72.4,0,23.8,0,29.9,0,22.7,0,,1,22.2,0,15.8,0
2003/4/4,17:30,7.7,0,74.9,0,23.9,0,30.1,0,22.7,0,,1,22.2,0,14,0
2003/4/4,17:45,7.2,0,77.9,0,23.9,0,30.3,0,22.7,0,,1,22.1,0,14.2,0
2003/4/4,18:00,7.3,0,77.3,0,23.9,0,30.4,0,22.7,0,,1,22.1,0,14.3,0
2003/4/4,18:15,7.3,0,77.8,0,23.6,0,31.1,0,22.7,0,,1,22.1,0,14.5,0
2003/4/4,18:30,7.2,0,78.6,0,23.5,0,31.6,0,22.7,0,,1,22,0,14.6,0
2003/4/4,18:45,7.2,0,78.9,0,23.5,0,31.1,0,22.7,0,,1,22,0,14.8,0